Regional Weather Roundup
Issued by NWS

Home | Current Version | Previous Version | Text Only | Print | Product List | Glossary On
Versions: 1 2 3 4 5 6 7 8 9 10 11 12 13 14 15 16 17 18 19 20 21 22 23 24 25 26 27 28 29 30 31 32 33 34 35 36 37 38 39 40 41 42 43 44 45 46 47 48 49 50
000
ASUS45 KPSR 070410
RWRAZ

ARIZONA REGIONAL HOURLY WEATHER ROUNDUP
NATIONAL WEATHER SERVICE PHOENIX AZ
900 PM MST WED MAY 06 2015

NOTE: FAIR INDICATES FEW OR NO CLOUDS BELOW 12,000 FEET WITH NO
SIGNIFICANT WEATHER AND/OR OBSTRUCTIONS TO VISIBILITY.

AZZ001>003-036-070500-
NORTHWEST ARIZONA

CITY           SKY/WX    TMP DP  RH WIND       PRES   REMARKS
BULLHEAD CITY  CLEAR     81  36  19 S14G22    29.63R
KINGMAN        CLEAR     65  34  31 S12       29.76R
$$

AZZ004>008-015-016-018-070500-
NORTH CENTRAL ARIZONA

CITY           SKY/WX    TMP DP  RH WIND       PRES   REMARKS
GRAND CANYON   PTCLDY    49  25  39 SW9       29.91R
WILLIAMS       PTCLDY    48  28  46 S9        29.99R
PRESCOTT       CLEAR     54  30  40 SW7       29.87R
FLAGSTAFF      CLEAR     46  28  49 W3        29.94R
PAYSON         CLEAR     59  28  31 SW5       29.89S
PAGE           PTCLDY    67  30  25 S7        29.74R
$$

AZZ009>014-017-070500-
NORTHEAST ARIZONA

CITY           SKY/WX    TMP DP  RH WIND       PRES   REMARKS
WINSLOW        PTCLDY    57  27  31 S3        29.87R
SAINT JOHNS    PTCLDY    55  30  38 SW7       29.90R
WINDOW ROCK    CLEAR     49  31  49 S6        29.94R
SHOW LOW       CLEAR     46  27  46 S7        29.95R
$$

AZZ023-070500-
GREATER PHOENIX AREA

CITY           SKY/WX    TMP DP  RH WIND       PRES   REMARKS
PHOENIX        PTCLDY    79  34  19 W9        29.71R
LUKE AFB       CLEAR     75  39  27 SW9       29.71R
DEER VALLEY    CLEAR     75  37  25 SW13      29.73R
SCOTTSDALE     CLEAR     76  35  22 W14       29.75R
MESA-GATEWAY   PTCLDY    75  34  22 SW10      29.75R
CHANDLER       PTCLDY    77  36  22 SW8       29.72R
$$

AZZ027-028-070500-
SOUTHWEST MARICOPA COUNTY AND PINAL COUNTY

CITY           SKY/WX    TMP DP  RH WIND       PRES   REMARKS
CASA GRANDE    CLEAR     73  37  27 SW13G22   29.73R
GILA BEND      CLEAR     73  34  23 S17G24    29.72R
$$

AZZ503-504-507>509-070500-
SOUTHEAST ARIZONA

CITY           SKY/WX    TMP DP  RH WIND       PRES   REMARKS
TUCSON         CLEAR     74  40  29 SW9       29.82R
DAVIS-MONTHAN  CLEAR     73  35  25 SW12      29.80R
NOGALES        CLEAR     66  23  19 S13       29.89R
SIERRA VISTA   CLEAR     65  27  23 SW10      29.92S
DOUGLAS        CLEAR     67  29  24 SW12      29.89R
SAFFORD        CLEAR     68  24  19 NW7       29.77R
$$

AZZ020-021-025-026-031-070500-
SOUTHWEST ARIZONA

CITY           SKY/WX    TMP DP  RH WIND       PRES   REMARKS
YUMA           CLEAR     74  52  46 S17       29.69R
$$

CAZ031-033-041-043-047-048-061-070500-
SOUTHERN CALIFORNIA

CITY           SKY/WX    TMP DP  RH WIND       PRES   REMARKS
DOWNTOWN L.A.  CLOUDY    60  48  64 CALM      29.85R
L.A. AIRPORT   PTCLDY    58  52  80 W10       29.86R
SAN DIEGO      CLOUDY    62  50  64 W9        29.90R
BURBANK        CLOUDY    61  45  55 S5        29.84R
ONTARIO        CLOUDY    59  48  67 SW9       29.84S
RIVERSIDE      CLOUDY    60  49  66 W8        29.85R
PALM SPRINGS   CLEAR     73  40  30 NW22G30   29.68R
EL CENTRO NAS  CLEAR     69  45  41 W26G35    29.73R
IMPERIAL       CLEAR     68  46  45 W24G32    29.69R
BLYTHE         CLEAR     77  43  29 SW20G26   29.66R
NEEDLES        CLEAR     80  30  16 SW14      29.64R
$$

NVZ020-UTZ003-070500-
SOUTHERN NEVADA-UTAH

CITY           SKY/WX    TMP DP  RH WIND       PRES   REMARKS
LAS VEGAS      PTCLDY    77  24  14 S17G26    29.58R
SALT LAKE CITY HVY RAIN  49  47  93 N13       29.74F FOG
$$

NMZ009-TXZ055-070500-
NEW MEXICO-WEST TEXAS

CITY           SKY/WX    TMP DP  RH WIND       PRES   REMARKS
ALBUQUERQUE    MOCLDY    60  40  47 E6        29.89R
EL PASO        PTCLDY    78  20  11 W9        29.81R
$$


........................KEY........................
SKY/WX - SKY CONDITION/WEATHER
TMP    - TEMPERATURE IN FAHRENHEIT
DP     - DEW POINT IN FAHRENHEIT
RH     - RELATIVE HUMIDITY IN PERCENT
WIND   - DIRECTION AND SPEED IN MILES PER HOUR (MPH)
VRB    - VARIABLE WIND DIRECTION
PRES   - MEAN SEA LEVEL PRESSURE IN INCHES OF MERCURY
         F - FALLING PRESSURE   R - RISING PRESSURE
         S - STEADY PRESSURE
VSB    - VISIBILITY IN MILES
HX     - HEAT INDEX IN FAHRENHEIT
WCI    - WIND CHILL INDEX IN FAHRENHEIT
TC     - TEMPERATURE IN CELSIUS WHICH IS ALSO KNOWN AS
         TEMPERATURE IN CENTIGRADE
AFB    - AIR FORCE BASE
         LUKE AFB IS LUKE AIR FORCE BASE
         DAVIS-MONTHAN IS DAVIS-MONTHAN AIR FORCE BASE
NAS    - NAVAL AIR STATION
         EL CENTRO NAS IS EL CENTRO NAVAL AIR STATION
N/A    - NOT AVAILABLE




USA.gov is the U.S. government's official web portal to all federal, state and local government web resources and services.